Sheridan, WY

4:40 PM MST on December 15, 2017 (GMT -0700)
Sheridan County

Weather History for KSHR - January, 2014

Change the Weather History Date:

Wednesday, January 22, 2014

  Actual Average Record
Temperature  
Mean Temperature 27 °F 24 °F  
Max Temperature 36 °F 37 °F 68 °F (1981)
Min Temperature 18 °F 12 °F -28 °F (1927)
Degree Days  
Heating Degree Days 38 41  
Month to date heating degree days 821 911  
Since 1 July heating degree days 4041 4094  
Cooling Degree Days 0 0  
Month to date cooling degree days 0 0  
Year to date cooling degree days 0 0  
Moisture  
Dew Point 22 °F    
Average Humidity 75    
Maximum Humidity 85    
Minimum Humidity 64    
Precipitation  
Precipitation T in 0.02 in 0.88 in (1948)
Month to date precipitation 0.42 0.38  
Year to date precipitation 0.42 0.38  
Sea Level Pressure  
Sea Level Pressure 30.31 in    
Wind  
Wind Speed 8 mph (North)    
Max Wind Speed 18 mph    
Max Gust Speed 26 mph    
Visibility 10 miles    
Events Snow    
T = Trace of Precipitation, MM = Missing Value Source: NWS Daily Summary

Daily Weather History Graph

Daily Weather History Graph

Search for Another Location

Airport or City:

Trip Planner

Search our weather history database for the weather conditions in past years. The results will help you decide how hot, cold, wet, or windy it might be!

Date:

Astronomy

Jan. 22, 2014 Rise Set
Actual Time 7:36 AM MST 5:02 PM MST
Civil Twilight 7:04 AM MST 5:34 PM MST
Nautical Twilight 6:29 AM MST 6:10 PM MST
Astronomical Twilight 5:54 AM MST 6:45 PM MST
Moon 11:56 PM MST (1/22) 10:22 AM MST (1/22)
Length of Visible Light 10h 29m
Length of Day
9h 25m
Waning Gibbous, 65% of the Moon is Illuminated
Jan 22
Waning Gibbous
Jan 23
Last Quarter
Jan 30
New
Feb 6
First Quarter
Feb 14
Full

Hourly Weather History & Observations

Time (MST) Temp. Windchill Dew Point Humidity Pressure Visibility Wind Dir Wind Speed Gust Speed Precip Events Conditions
12:53 AM 36.0 °F 27.5 °F 24.1 °F 62% 30.23 in 10.0 mi West 12.7 mph - N/A   Overcast
1:53 AM 34.0 °F 28.8 °F 24.1 °F 67% 30.25 in 10.0 mi WNW 5.8 mph - N/A   Overcast
2:53 AM 33.1 °F 24.4 °F 24.1 °F 70% 30.26 in 10.0 mi WNW 11.5 mph - N/A   Overcast
3:53 AM 30.9 °F 21.7 °F 26.1 °F 82% 30.27 in 10.0 mi West 11.5 mph - N/A   Overcast
4:36 AM 32.0 °F 21.2 °F 27.0 °F 82% 30.19 in 10.0 mi West 16.1 mph - N/A   Overcast
4:53 AM 32.0 °F 22.1 °F 27.0 °F 82% 30.27 in 10.0 mi West 13.8 mph - N/A   Overcast
5:53 AM 32.0 °F 22.5 °F 25.0 °F 75% 30.26 in 10.0 mi WNW 12.7 mph - N/A   Overcast
6:53 AM 32.0 °F 24.8 °F 25.0 °F 75% 30.27 in 10.0 mi NNW 8.1 mph - N/A   Overcast
7:53 AM 30.9 °F 26.2 °F 26.1 °F 82% 30.27 in 10.0 mi NNW 4.6 mph - N/A   Overcast
8:53 AM 30.9 °F 27.5 °F 26.1 °F 82% 30.30 in 10.0 mi ENE 3.5 mph - N/A   Overcast
9:53 AM 30.0 °F 24.1 °F 25.0 °F 82% 30.31 in 4.0 mi North 5.8 mph - 0.00 in Snow Light Snow
10:53 AM 30.0 °F 24.1 °F 24.1 °F 79% 30.30 in 10.0 mi North 5.8 mph - 0.00 in   Overcast
11:53 AM 28.9 °F 20.4 °F 23.0 °F 78% 30.30 in 10.0 mi North 9.2 mph - N/A   Overcast
12:00 PM 28.9 °F 20.4 °F 23.0 °F 78% 30.20 in 10.0 mi NNE 9.2 mph - N/A   Overcast
12:53 PM 28.9 °F 20.4 °F 23.0 °F 78% 30.28 in 10.0 mi North 9.2 mph - N/A   Overcast
1:06 PM 28.9 °F 21.1 °F 23.0 °F 78% 30.19 in 10.0 mi NNE 8.1 mph - N/A   Overcast
1:53 PM 28.9 °F 21.9 °F 21.9 °F 75% 30.28 in 10.0 mi NNE 6.9 mph - N/A   Overcast
2:18 PM 28.9 °F 25.2 °F 21.9 °F 75% 30.18 in 10.0 mi NNW 3.5 mph - N/A   Overcast
2:25 PM 28.9 °F 22.8 °F 21.9 °F 75% 30.19 in 10.0 mi NNE 5.8 mph - N/A   Overcast
2:53 PM 28.9 °F - 21.9 °F 75% 30.29 in 10.0 mi Calm Calm - N/A   Overcast
3:00 PM 28.9 °F 25.2 °F 21.9 °F 75% 30.19 in 10.0 mi NNE 3.5 mph - N/A   Overcast
3:15 PM 28.9 °F 25.2 °F 21.9 °F 75% 30.19 in 10.0 mi North 3.5 mph - N/A   Overcast
3:53 PM 28.0 °F 20.0 °F 21.9 °F 78% 30.32 in 10.0 mi NE 8.1 mph - N/A   Overcast
4:10 PM 28.0 °F 20.0 °F 21.9 °F 78% 30.22 in 10.0 mi NE 8.1 mph - N/A   Overcast
4:42 PM 27.0 °F 18.7 °F 21.9 °F 81% 30.23 in 10.0 mi NE 8.1 mph - N/A   Overcast
4:53 PM 27.0 °F 17.3 °F 21.0 °F 78% 30.35 in 10.0 mi NNE 10.4 mph - N/A   Overcast
5:42 PM 26.1 °F 16.2 °F 21.0 °F 81% 30.26 in 10.0 mi North 10.4 mph - N/A   Overcast
5:53 PM 26.1 °F 16.2 °F 19.9 °F 78% 30.39 in 10.0 mi North 10.4 mph - N/A   Overcast
6:53 PM 24.1 °F 13.1 °F 18.0 °F 77% 30.43 in 10.0 mi North 11.5 mph - N/A   Overcast
7:53 PM 21.9 °F 13.4 °F 16.0 °F 78% 30.47 in 10.0 mi North 6.9 mph - N/A   Overcast
8:53 PM 19.9 °F 10.1 °F 15.1 °F 81% 30.50 in 10.0 mi North 8.1 mph - N/A   Overcast
9:53 PM 19.9 °F 10.1 °F 15.1 °F 81% 30.52 in 10.0 mi NNE 8.1 mph - N/A   Overcast
10:53 PM 19.0 °F 11.1 °F 14.0 °F 81% 30.53 in 10.0 mi North 5.8 mph - N/A   Overcast
11:53 PM 18.0 °F 8.7 °F 14.0 °F 84% 30.57 in 10.0 mi North 6.9 mph - N/A   Overcast